Time,TemperatureF,DewpointF,PressureIn,WindDirection,WindDirectionDegrees,WindSpeedMPH,WindSpeedGustMPH,Humidity,HourlyPrecipIn,Conditions,Clouds,dailyrainin,SoftwareType,DateUTC
2013-01-26 00:02:00,61.0,-99.9,29.94,North,358,0.0,0.0,-999,-99.99,,,-99.99,,2013-01-26 08:02:00,
2013-01-26 00:54:00,61.0,-99.9,29.92,West,270,0.0,1.0,-999,-99.99,,,-99.99,,2013-01-26 08:54:00,
2013-01-26 01:02:00,61.0,-99.9,29.93,SSW,195,1.0,1.0,-999,-99.99,,,-99.99,,2013-01-26 09:02:00,
2013-01-26 01:11:00,61.0,-99.9,29.93,SSW,195,1.0,1.0,-999,-99.99,,,-99.99,,2013-01-26 09:11:00,
2013-01-26 01:22:00,61.0,-99.9,29.93,WSW,248,1.0,1.0,-999,-99.99,,,-99.99,,2013-01-26 09:22:00,
2013-01-26 01:32:00,61.0,-99.9,29.92,West,262,0.0,1.0,-999,-99.99,,,-99.99,,2013-01-26 09:32:00,
2013-01-26 01:42:00,61.0,-99.9,29.92,West,262,0.0,1.0,-999,-99.99,,,-99.99,,2013-01-26 09:42:00,
2013-01-26 01:52:00,61.0,-99.9,29.91,SE,132,1.0,1.0,-999,-99.99,,,-99.99,,2013-01-26 09:52:00,
2013-01-26 02:01:00,61.0,-99.9,29.91,SE,131,1.0,1.0,-999,-99.99,,,-99.99,,2013-01-26 10:01:00,
2013-01-26 02:12:00,61.0,-99.9,29.91,SE,131,1.0,1.0,-999,-99.99,,,-99.99,,2013-01-26 10:12:00,
2013-01-26 02:22:00,61.0,-99.9,29.91,SSW,213,1.0,1.0,-999,-99.99,,,-99.99,,2013-01-26 10:22:00,
2013-01-26 02:32:00,61.0,-99.9,29.91,SSW,203,0.0,0.0,-999,-99.99,,,-99.99,,2013-01-26 10:32:00,
2013-01-26 02:43:00,61.0,-99.9,29.91,SSW,203,0.0,0.0,-999,-99.99,,,-99.99,,2013-01-26 10:43:00,
2013-01-26 02:52:00,61.0,-99.9,29.91,East,90,0.0,1.0,-999,-99.99,,,-99.99,,2013-01-26 10:52:00,
2013-01-26 03:02:00,61.0,-99.9,29.91,East,79,0.0,0.0,-999,-99.99,,,-99.99,,2013-01-26 11:02:00,
2013-01-26 03:12:00,61.0,-99.9,29.91,East,79,0.0,0.0,-999,-99.99,,,-99.99,,2013-01-26 11:12:00,
2013-01-26 03:22:00,61.0,-99.9,29.89,WSW,255,1.0,0.0,-999,-99.99,,,-99.99,,2013-01-26 11:22:00,
2013-01-26 03:32:00,61.0,-99.9,29.88,NW,306,1.0,1.0,-999,-99.99,,,-99.99,,2013-01-26 11:32:00,
2013-01-26 03:42:00,61.0,-99.9,29.88,NW,306,1.0,1.0,-999,-99.99,,,-99.99,,2013-01-26 11:42:00,
2013-01-26 03:53:00,61.0,-99.9,29.88,WNW,302,1.0,1.0,-999,-99.99,,,-99.99,,2013-01-26 11:53:00,
2013-01-26 04:02:00,61.0,-99.9,29.87,NW,315,0.0,0.0,-999,-99.99,,,-99.99,,2013-01-26 12:02:00,
2013-01-26 04:12:00,61.0,-99.9,29.87,NW,315,0.0,0.0,-999,-99.99,,,-99.99,,2013-01-26 12:12:00,
2013-01-26 04:23:00,61.0,-99.9,29.87,NW,315,0.0,0.0,-999,-99.99,,,-99.99,,2013-01-26 12:23:00,
2013-01-26 04:33:00,61.0,-99.9,29.87,NW,315,0.0,0.0,-999,-99.99,,,-99.99,,2013-01-26 12:33:00,
2013-01-26 04:42:00,61.0,-99.9,29.87,NW,315,0.0,0.0,-999,-99.99,,,-99.99,,2013-01-26 12:42:00,
2013-01-26 04:53:00,61.0,-99.9,29.87,NW,315,0.0,0.0,-999,-99.99,,,-99.99,,2013-01-26 12:53:00,
2013-01-26 05:04:00,61.0,-99.9,29.87,NW,323,0.0,0.0,-999,-99.99,,,-99.99,,2013-01-26 13:04:00,
2013-01-26 05:12:00,61.0,-99.9,29.87,NW,323,0.0,0.0,-999,-99.99,,,-99.99,,2013-01-26 13:12:00,
2013-01-26 05:22:00,61.0,-99.9,29.88,SSW,203,0.0,0.0,-999,-99.99,,,-99.99,,2013-01-26 13:22:00,
2013-01-26 05:33:00,61.0,-99.9,29.87,SSW,203,0.0,0.0,-999,-99.99,,,-99.99,,2013-01-26 13:33:00,
2013-01-26 05:42:00,61.0,-99.9,29.87,SSW,203,0.0,0.0,-999,-99.99,,,-99.99,,2013-01-26 13:42:00,
2013-01-26 05:53:00,61.0,-99.9,29.87,WSW,256,0.0,0.0,-999,-99.99,,,-99.99,,2013-01-26 13:53:00,
2013-01-26 06:03:00,61.0,-99.9,29.87,WSW,249,1.0,1.0,-999,-99.99,,,-99.99,,2013-01-26 14:03:00,
2013-01-26 06:12:00,61.0,-99.9,29.87,WSW,249,1.0,1.0,-999,-99.99,,,-99.99,,2013-01-26 14:12:00,
2013-01-26 06:22:00,61.0,-99.9,29.87,NNE,23,0.0,0.0,-999,-99.99,,,-99.99,,2013-01-26 14:22:00,
2013-01-26 06:32:00,61.0,-99.9,29.87,East,90,0.0,0.0,-999,-99.99,,,-99.99,,2013-01-26 14:32:00,
2013-01-26 06:43:00,61.0,-99.9,29.87,East,90,0.0,0.0,-999,-99.99,,,-99.99,,2013-01-26 14:43:00,
2013-01-26 06:53:00,61.0,-99.9,29.88,SW,225,0.0,0.0,-999,-99.99,,,-99.99,,2013-01-26 14:53:00,
2013-01-26 07:03:00,61.0,-99.9,29.88,SW,225,0.0,0.0,-999,-99.99,,,-99.99,,2013-01-26 15:03:00,
2013-01-26 07:12:00,61.0,-99.9,29.88,SW,225,0.0,0.0,-999,-99.99,,,-99.99,,2013-01-26 15:12:00,
2013-01-26 07:22:00,61.0,-99.9,29.88,SW,225,0.0,0.0,-999,-99.99,,,-99.99,,2013-01-26 15:22:00,
2013-01-26 07:33:00,61.0,-99.9,29.88,SSW,203,0.0,0.0,-999,-99.99,,,-99.99,,2013-01-26 15:33:00,
2013-01-26 07:43:00,61.0,-99.9,29.88,SSW,203,0.0,0.0,-999,-99.99,,,-99.99,,2013-01-26 15:43:00,
2013-01-26 07:53:00,61.0,-99.9,29.88,SW,225,0.0,0.0,-999,-99.99,,,-99.99,,2013-01-26 15:53:00,
2013-01-26 08:03:00,61.0,-99.9,29.88,WSW,247,0.0,0.0,-999,-99.99,,,-99.99,,2013-01-26 16:03:00,
2013-01-26 08:13:00,61.0,-99.9,29.89,West,280,1.0,1.0,-999,-99.99,,,-99.99,,2013-01-26 16:13:00,
2013-01-26 08:22:00,61.0,-99.9,29.89,West,280,1.0,1.0,-999,-99.99,,,-99.99,,2013-01-26 16:22:00,
2013-01-26 08:33:00,61.0,-99.9,29.89,WSW,256,1.0,1.0,-999,-99.99,,,-99.99,,2013-01-26 16:33:00,
2013-01-26 08:43:00,61.0,-99.9,29.89,WSW,256,1.0,1.0,-999,-99.99,,,-99.99,,2013-01-26 16:43:00,
2013-01-26 08:53:00,61.0,-99.9,29.90,WSW,257,0.0,1.0,-999,-99.99,,,-99.99,,2013-01-26 16:53:00,
2013-01-26 09:03:00,61.0,-99.9,29.90,SSE,158,0.0,0.0,-999,-99.99,,,-99.99,,2013-01-26 17:03:00,
2013-01-26 09:13:00,61.0,-99.9,29.90,SSE,158,0.0,0.0,-999,-99.99,,,-99.99,,2013-01-26 17:13:00,
2013-01-26 09:23:00,61.0,-99.9,29.91,South,181,0.0,1.0,-999,-99.99,,,-99.99,,2013-01-26 17:23:00,
2013-01-26 09:33:00,61.0,-99.9,29.92,WNW,291,1.0,1.0,-999,-99.99,,,-99.99,,2013-01-26 17:33:00,
2013-01-26 09:42:00,61.0,-99.9,29.92,WNW,291,1.0,1.0,-999,-99.99,,,-99.99,,2013-01-26 17:42:00,
2013-01-26 09:53:00,61.0,-99.9,29.92,North,357,0.0,1.0,-999,-99.99,,,-99.99,,2013-01-26 17:53:00,
2013-01-26 10:03:00,62.0,-99.9,29.92,East,91,0.0,1.0,-999,-99.99,,,-99.99,,2013-01-26 18:03:00,
2013-01-26 10:12:00,62.0,-99.9,29.92,East,91,0.0,1.0,-999,-99.99,,,-99.99,,2013-01-26 18:12:00,
2013-01-26 10:22:00,62.0,-99.9,29.93,SSE,157,1.0,1.0,-999,-99.99,,,-99.99,,2013-01-26 18:22:00,
2013-01-26 10:33:00,62.0,-99.9,29.92,SW,218,1.0,1.0,-999,-99.99,,,-99.99,,2013-01-26 18:33:00,
2013-01-26 10:42:00,62.0,-99.9,29.92,SW,218,1.0,1.0,-999,-99.99,,,-99.99,,2013-01-26 18:42:00,
2013-01-26 10:53:00,62.0,-99.9,29.92,West,270,3.0,3.0,-999,-99.99,,,-99.99,,2013-01-26 18:53:00,
2013-01-26 11:03:00,62.0,-99.9,29.92,WSW,256,1.0,3.0,-999,-99.99,,,-99.99,,2013-01-26 19:03:00,
2013-01-26 11:12:00,62.0,-99.9,29.92,WSW,256,1.0,3.0,-999,-99.99,,,-99.99,,2013-01-26 19:12:00,
2013-01-26 11:23:00,63.0,-99.9,29.91,South,173,4.0,5.0,-999,-99.99,,,-99.99,,2013-01-26 19:23:00,
2013-01-26 11:33:00,63.0,-99.9,29.91,SE,127,4.0,6.0,-999,-99.99,,,-99.99,,2013-01-26 19:33:00,
2013-01-26 11:43:00,63.0,-99.9,29.91,SE,127,4.0,6.0,-999,-99.99,,,-99.99,,2013-01-26 19:43:00,
2013-01-26 11:53:00,64.0,-99.9,29.90,ESE,114,5.0,7.0,-999,-99.99,,,-99.99,,2013-01-26 19:53:00,
2013-01-26 12:02:00,64.0,-99.9,29.90,SSE,149,5.0,9.0,-999,-99.99,,,-99.99,,2013-01-26 20:02:00,
2013-01-26 12:12:00,64.0,-99.9,29.90,SSE,149,5.0,9.0,-999,-99.99,,,-99.99,,2013-01-26 20:12:00,
2013-01-26 12:22:00,64.0,-99.9,29.90,SW,227,2.0,10.0,-999,-99.99,,,-99.99,,2013-01-26 20:22:00,
2013-01-26 12:32:00,64.0,-99.9,29.90,SSW,196,3.0,8.0,-999,-99.99,,,-99.99,,2013-01-26 20:32:00,
2013-01-26 12:42:00,64.0,-99.9,29.90,SSW,196,3.0,8.0,-999,-99.99,,,-99.99,,2013-01-26 20:42:00,
2013-01-26 12:52:00,64.0,-99.9,29.90,SSW,207,5.0,10.0,-999,-99.99,,,-99.99,,2013-01-26 20:52:00,
2013-01-26 13:03:00,64.0,-99.9,29.89,SW,225,6.0,11.0,-999,-99.99,,,-99.99,,2013-01-26 21:03:00,
2013-01-26 13:12:00,64.0,-99.9,29.89,SW,225,6.0,11.0,-999,-99.99,,,-99.99,,2013-01-26 21:12:00,
2013-01-26 13:23:00,63.0,-99.9,29.89,WSW,243,5.0,8.0,-999,-99.99,,,-99.99,,2013-01-26 21:23:00,
2013-01-26 13:32:00,63.0,-99.9,29.90,WSW,239,6.0,10.0,-999,-99.99,,,-99.99,,2013-01-26 21:32:00,
2013-01-26 13:43:00,63.0,-99.9,29.90,WSW,239,6.0,10.0,-999,-99.99,,,-99.99,,2013-01-26 21:43:00,
2013-01-26 13:52:00,62.0,-99.9,29.91,WSW,241,4.0,10.0,-999,-99.99,,,-99.99,,2013-01-26 21:52:00,
2013-01-26 14:02:00,62.0,-99.9,29.91,SW,235,6.0,10.0,-999,-99.99,,,-99.99,,2013-01-26 22:02:00,
2013-01-26 14:12:00,62.0,-99.9,29.91,SW,235,6.0,10.0,-999,-99.99,,,-99.99,,2013-01-26 22:12:00,
2013-01-26 14:22:00,62.0,-99.9,29.90,SSW,207,3.0,10.0,-999,-99.99,,,-99.99,,2013-01-26 22:22:00,
2013-01-26 14:32:00,62.0,-99.9,29.90,WSW,249,3.0,6.0,-999,-99.99,,,-99.99,,2013-01-26 22:32:00,
2013-01-26 14:42:00,62.0,-99.9,29.90,WSW,249,3.0,6.0,-999,-99.99,,,-99.99,,2013-01-26 22:42:00,
2013-01-26 14:52:00,62.0,-99.9,29.91,SSW,194,4.0,6.0,-999,-99.99,,,-99.99,,2013-01-26 22:52:00,
2013-01-26 15:02:00,63.0,-99.9,29.90,South,186,3.0,5.0,-999,-99.99,,,-99.99,,2013-01-26 23:02:00,
2013-01-26 15:12:00,63.0,-99.9,29.90,South,186,3.0,5.0,-999,-99.99,,,-99.99,,2013-01-26 23:12:00,
2013-01-26 15:22:00,63.0,-99.9,29.90,SSW,212,3.0,5.0,-999,-99.99,,,-99.99,,2013-01-26 23:22:00,
2013-01-26 15:33:00,64.0,-99.9,29.90,SW,215,4.0,6.0,-999,-99.99,,,-99.99,,2013-01-26 23:33:00,
2013-01-26 15:42:00,64.0,-99.9,29.90,SW,215,4.0,6.0,-999,-99.99,,,-99.99,,2013-01-26 23:42:00,
2013-01-26 15:52:00,64.0,-99.9,29.90,South,173,4.0,8.0,-999,-99.99,,,-99.99,,2013-01-26 23:52:00,
2013-01-26 16:02:00,63.0,-99.9,29.90,South,175,5.0,8.0,-999,-99.99,,,-99.99,,2013-01-27 00:02:00,
2013-01-26 16:12:00,63.0,-99.9,29.90,South,175,5.0,8.0,-999,-99.99,,,-99.99,,2013-01-27 00:12:00,
2013-01-26 16:22:00,63.0,-99.9,29.91,SSE,157,4.0,7.0,-999,-99.99,,,-99.99,,2013-01-27 00:22:00,
2013-01-26 16:32:00,62.0,-99.9,29.91,SSE,156,3.0,8.0,-999,-99.99,,,-99.99,,2013-01-27 00:32:00,
2013-01-26 16:42:00,62.0,-99.9,29.91,SSE,156,3.0,8.0,-999,-99.99,,,-99.99,,2013-01-27 00:42:00,
2013-01-26 16:52:00,61.0,-99.9,29.91,SSW,200,4.0,9.0,-999,-99.99,,,-99.99,,2013-01-27 00:52:00,
2013-01-26 17:02:00,61.0,-99.9,29.92,SSW,192,5.0,8.0,-999,-99.99,,,-99.99,,2013-01-27 01:02:00,
2013-01-26 17:11:00,61.0,-99.9,29.92,SSW,192,5.0,8.0,-999,-99.99,,,-99.99,,2013-01-27 01:11:00,
2013-01-26 17:22:00,60.0,-99.9,29.92,South,173,3.0,7.0,-999,-99.99,,,-99.99,,2013-01-27 01:22:00,
2013-01-26 17:32:00,59.0,-99.9,29.92,South,177,4.0,9.0,-999,-99.99,,,-99.99,,2013-01-27 01:32:00,
2013-01-26 17:42:00,59.0,-99.9,29.92,South,177,4.0,9.0,-999,-99.99,,,-99.99,,2013-01-27 01:42:00,
2013-01-26 17:52:00,59.0,-99.9,29.93,SSW,196,3.0,7.0,-999,-99.99,,,-99.99,,2013-01-27 01:52:00,
2013-01-26 18:02:00,58.0,-99.9,29.92,South,173,5.0,10.0,-999,-99.99,,,-99.99,,2013-01-27 02:02:00,
2013-01-26 18:12:00,58.0,-99.9,29.92,South,173,5.0,10.0,-999,-99.99,,,-99.99,,2013-01-27 02:12:00,
2013-01-26 18:22:00,58.0,-99.9,29.93,SSW,206,5.0,10.0,-999,-99.99,,,-99.99,,2013-01-27 02:22:00,
2013-01-26 18:32:00,57.0,-99.9,29.93,South,183,3.0,10.0,-999,-99.99,,,-99.99,,2013-01-27 02:32:00,
2013-01-26 18:42:00,57.0,-99.9,29.93,South,183,3.0,10.0,-999,-99.99,,,-99.99,,2013-01-27 02:42:00,
2013-01-26 18:52:00,57.0,-99.9,29.95,SSW,206,3.0,6.0,-999,-99.99,,,-99.99,,2013-01-27 02:52:00,
2013-01-26 19:02:00,57.0,-99.9,29.95,SSW,207,4.0,7.0,-999,-99.99,,,-99.99,,2013-01-27 03:02:00,
2013-01-26 19:12:00,57.0,-99.9,29.95,SSW,207,4.0,7.0,-999,-99.99,,,-99.99,,2013-01-27 03:12:00,
2013-01-26 19:21:00,58.0,-99.9,29.96,SW,227,3.0,7.0,-999,-99.99,,,-99.99,,2013-01-27 03:21:00,
2013-01-26 19:32:00,58.0,-99.9,29.96,SW,224,3.0,8.0,-999,-99.99,,,-99.99,,2013-01-27 03:32:00,
2013-01-26 19:42:00,58.0,-99.9,29.96,SW,224,3.0,8.0,-999,-99.99,,,-99.99,,2013-01-27 03:42:00,
2013-01-26 19:52:00,58.0,-99.9,29.96,SW,230,2.0,5.0,-999,-99.99,,,-99.99,,2013-01-27 03:52:00,
2013-01-26 20:02:00,58.0,-99.9,29.96,WSW,244,3.0,4.0,-999,-99.99,,,-99.99,,2013-01-27 04:02:00,
2013-01-26 20:12:00,58.0,-99.9,29.96,WSW,244,3.0,4.0,-999,-99.99,,,-99.99,,2013-01-27 04:12:00,
2013-01-26 20:22:00,58.0,-99.9,29.97,SW,228,1.0,3.0,-999,-99.99,,,-99.99,,2013-01-27 04:22:00,
2013-01-26 20:32:00,58.0,-99.9,29.97,SW,228,1.0,3.0,-999,-99.99,,,-99.99,,2013-01-27 04:32:00,
2013-01-26 20:42:00,58.0,-99.9,29.97,SW,228,1.0,3.0,-999,-99.99,,,-99.99,,2013-01-27 04:42:00,
2013-01-26 20:52:00,58.0,-99.9,29.98,SSW,213,2.0,5.0,-999,-99.99,,,-99.99,,2013-01-27 04:52:00,
2013-01-26 21:12:00,58.0,-99.9,29.97,SSW,204,2.0,4.0,-999,-99.99,,,-99.99,,2013-01-27 05:12:00,
2013-01-26 21:22:00,58.0,-99.9,29.97,SW,225,4.0,5.0,-999,-99.99,,,-99.99,,2013-01-27 05:22:00,
2013-01-26 21:32:00,58.0,-99.9,29.97,SW,219,2.0,6.0,-999,-99.99,,,-99.99,,2013-01-27 05:32:00,
2013-01-26 21:40:00,58.0,-99.9,29.97,SW,236,3.0,5.0,-999,-99.99,,,-99.99,,2013-01-27 05:40:00,
2013-01-26 21:42:00,58.0,-99.9,29.97,SW,219,2.0,6.0,-999,-99.99,,,-99.99,,2013-01-27 05:42:00,
2013-01-26 21:52:00,58.0,-99.9,29.98,SW,215,3.0,5.0,-999,-99.99,,,-99.99,,2013-01-27 05:52:00,
2013-01-26 22:02:00,58.0,-99.9,29.97,SW,236,3.0,5.0,-999,-99.99,,,-99.99,,2013-01-27 06:02:00,
2013-01-26 22:11:00,58.0,-99.9,29.97,SW,236,3.0,5.0,-999,-99.99,,,-99.99,,2013-01-27 06:11:00,
2013-01-26 22:22:00,58.0,-99.9,29.97,SW,236,3.0,5.0,-999,-99.99,,,-99.99,,2013-01-27 06:22:00,
2013-01-26 22:32:00,58.0,-99.9,29.97,SW,236,3.0,5.0,-999,-99.99,,,-99.99,,2013-01-27 06:32:00,
2013-01-26 22:52:00,58.0,-99.9,29.98,WSW,239,2.0,5.0,-999,-99.99,,,-99.99,,2013-01-27 06:52:00,
2013-01-26 23:01:00,58.0,-99.9,29.99,ESE,122,2.0,3.0,-999,-99.99,,,-99.99,,2013-01-27 07:01:00,
2013-01-26 23:14:00,58.0,-99.9,29.99,ESE,122,2.0,3.0,-999,-99.99,,,-99.99,,2013-01-27 07:14:00,
2013-01-26 23:21:00,58.0,-99.9,29.99,SE,134,1.0,2.0,-999,-99.99,,,-99.99,,2013-01-27 07:21:00,
2013-01-26 23:32:00,58.0,-99.9,29.99,South,191,1.0,2.0,-999,-99.99,,,-99.99,,2013-01-27 07:32:00,
2013-01-26 23:42:00,58.0,-99.9,29.99,South,191,1.0,2.0,-999,-99.99,,,-99.99,,2013-01-27 07:42:00,
2013-01-26 23:52:00,58.0,-99.9,29.99,SSE,168,3.0,6.0,-999,-99.99,,,-99.99,,2013-01-27 07:52:00,